sat.trackr.live / text

‹ back to catalog

STARLINK-32170

NORAD 60591 · 2024-150J

PAYLOAD ACTIVE UNKNOWN

§ Identity

Operator
Country
US
Launch date
2024-08-20
Launch site
AFETR
Launch vehicle
Mass (kg)
RCS (m²)

Purposes: comms

External: N2YO · Heavens-Above · Gunter

§ Orbital elements

Epoch: 2026-09-21T20:00:00.921600Z

Period
93.85 min
Inclination
53.1603°
Eccentricity
0.0001231
Mean motion
15.34385283 rev/d
Perigee alt
461.9 km
Apogee alt
463.6 km
Semi-major
6,840.9 km
B*
3.0006e-5
RAAN
115.1270°
Arg perigee
95.8862°
Mean anomaly
264.2281°
Rev number
11,800

§ Raw data

STARLINK-321701 60591U 24150J   26264.83334400  .00000637  00000+0  30006-4 0  99962 60591  53.1603 115.1270 0001231  95.8862 264.2281 15.34385283118000

JSON: /api/v1/satellites/60591 · /tle

For live sub-satellite position, see the globe view (requires WebGL).

§ Visibility from observer

Set your observer location to see the next 7 days of passes ≥ 10°. The values pass through the URL so the page stays shareable.

No JS? Fill the form by hand. The geolocation button needs JavaScript.